Time,TemperatureF,DewpointF,PressureIn,WindDirection,WindDirectionDegrees,WindSpeedMPH,WindSpeedGustMPH,Humidity,HourlyPrecipIn,Conditions,Clouds,dailyrainin,SoftwareType,DateUTC
2013-01-17 00:09:00,27.9,27.4,30.20,NE,45,0.0,-999.0,98,-99.99,,,0.00,Acu-Link.com,2013-01-17 06:09:00,
2013-01-17 00:24:00,27.1,26.7,30.20,NE,45,0.0,-999.0,98,-99.99,,,0.00,Acu-Link.com,2013-01-17 06:24:00,
2013-01-17 00:39:00,26.6,26.1,30.21,West,270,0.0,-999.0,98,-99.99,,,0.00,Acu-Link.com,2013-01-17 06:39:00,
2013-01-17 00:55:00,26.2,25.8,30.21,East,90,0.0,-999.0,98,-99.99,,,0.00,Acu-Link.com,2013-01-17 06:55:00,
2013-01-17 01:10:00,26.1,25.6,30.21,East,90,0.0,-999.0,98,-99.99,,,0.00,Acu-Link.com,2013-01-17 07:10:00,
2013-01-17 01:25:00,25.7,25.2,30.22,WNW,292,0.0,-999.0,98,-99.99,,,0.00,Acu-Link.com,2013-01-17 07:25:00,
2013-01-17 01:40:00,25.7,25.2,30.23,NNE,22,0.0,-999.0,98,-99.99,,,0.00,Acu-Link.com,2013-01-17 07:40:00,
2013-01-17 01:55:00,25.7,25.2,30.23,NNE,22,0.0,-999.0,98,-99.99,,,0.00,Acu-Link.com,2013-01-17 07:55:00,
2013-01-17 02:11:00,25.2,24.7,30.23,NE,45,0.0,-999.0,98,-99.99,,,0.00,Acu-Link.com,2013-01-17 08:11:00,
2013-01-17 02:26:00,25.0,24.5,30.24,NE,45,0.0,-999.0,98,-99.99,,,0.00,Acu-Link.com,2013-01-17 08:26:00,
2013-01-17 02:41:00,25.3,24.9,30.24,NE,45,0.0,-999.0,98,-99.99,,,0.00,Acu-Link.com,2013-01-17 08:41:00,
2013-01-17 02:56:00,24.6,24.1,30.25,NE,45,0.0,-999.0,98,-99.99,,,0.00,Acu-Link.com,2013-01-17 08:56:00,
2013-01-17 03:11:00,24.3,23.8,30.25,NE,45,0.0,-999.0,98,-99.99,,,0.00,Acu-Link.com,2013-01-17 09:11:00,
2013-01-17 03:27:00,24.3,23.8,30.25,NE,45,0.0,-999.0,98,-99.99,,,0.00,Acu-Link.com,2013-01-17 09:27:00,
2013-01-17 03:42:00,24.4,24.0,30.25,NNW,337,0.0,-999.0,98,-99.99,,,0.00,Acu-Link.com,2013-01-17 09:42:00,
2013-01-17 03:57:00,24.1,23.6,30.26,ESE,112,0.0,-999.0,98,-99.99,,,0.00,Acu-Link.com,2013-01-17 09:57:00,
2013-01-17 04:12:00,24.1,23.6,30.26,SW,225,0.0,-999.0,98,-99.99,,,0.00,Acu-Link.com,2013-01-17 10:12:00,
2013-01-17 04:27:00,25.0,24.5,30.26,NE,45,0.0,-999.0,98,-99.99,,,0.00,Acu-Link.com,2013-01-17 10:27:00,
2013-01-17 04:43:00,25.2,24.7,30.26,NE,45,0.0,-999.0,98,-99.99,,,0.00,Acu-Link.com,2013-01-17 10:43:00,
2013-01-17 04:58:00,25.9,25.4,30.26,NE,45,0.0,-999.0,98,-99.99,,,0.00,Acu-Link.com,2013-01-17 10:58:00,
2013-01-17 05:13:00,27.1,26.7,30.26,NNE,22,2.2,-999.0,98,-99.99,,,0.00,Acu-Link.com,2013-01-17 11:13:00,
2013-01-17 05:28:00,27.1,26.7,30.26,NE,45,0.0,-999.0,98,-99.99,,,0.00,Acu-Link.com,2013-01-17 11:28:00,
2013-01-17 05:44:00,26.6,26.1,30.26,NE,45,0.0,-999.0,98,-99.99,,,0.00,Acu-Link.com,2013-01-17 11:44:00,
2013-01-17 05:59:00,25.7,25.2,30.27,NE,45,0.0,-999.0,98,-99.99,,,0.00,Acu-Link.com,2013-01-17 11:59:00,
2013-01-17 06:14:00,25.5,25.0,30.27,NE,45,0.0,-999.0,98,-99.99,,,0.00,Acu-Link.com,2013-01-17 12:14:00,
2013-01-17 06:29:00,25.2,24.7,30.27,NE,45,0.0,-999.0,98,-99.99,,,0.00,Acu-Link.com,2013-01-17 12:29:00,
2013-01-17 06:44:00,24.6,24.1,30.28,NE,45,0.0,-999.0,98,-99.99,,,0.00,Acu-Link.com,2013-01-17 12:44:00,
2013-01-17 07:00:00,24.8,24.3,30.29,South,180,0.0,-999.0,98,-99.99,,,0.00,Acu-Link.com,2013-01-17 13:00:00,
2013-01-17 07:15:00,26.6,26.1,30.31,NE,45,0.0,-999.0,98,-99.99,,,0.00,Acu-Link.com,2013-01-17 13:15:00,
2013-01-17 07:30:00,27.0,26.5,30.32,SSW,202,0.0,-999.0,98,-99.99,,,0.00,Acu-Link.com,2013-01-17 13:30:00,
2013-01-17 07:45:00,27.0,26.5,30.32,SSW,202,0.0,-999.0,98,-99.99,,,0.00,Acu-Link.com,2013-01-17 13:45:00,
2013-01-17 08:00:00,27.5,24.7,30.33,SSW,202,0.0,-999.0,89,-99.99,,,0.00,Acu-Link.com,2013-01-17 14:00:00,
2013-01-17 08:16:00,27.9,26.6,30.34,NE,45,0.0,-999.0,95,-99.99,,,0.00,Acu-Link.com,2013-01-17 14:16:00,
2013-01-17 08:31:00,29.5,25.8,30.34,NE,45,0.0,-999.0,86,-99.99,,,0.00,Acu-Link.com,2013-01-17 14:31:00,
2013-01-17 08:46:00,36.1,35.6,30.35,NW,315,1.6,-999.0,98,-99.99,,,0.00,Acu-Link.com,2013-01-17 14:46:00,
2013-01-17 09:01:00,36.5,36.0,30.35,West,270,0.0,-999.0,98,-99.99,,,0.00,Acu-Link.com,2013-01-17 15:01:00,
2013-01-17 09:16:00,39.6,38.0,30.36,WNW,292,1.6,-999.0,94,-99.99,,,0.00,Acu-Link.com,2013-01-17 15:16:00,
2013-01-17 09:32:00,41.2,38.2,30.38,North,0,2.7,-999.0,89,-99.99,,,0.00,Acu-Link.com,2013-01-17 15:32:00,
2013-01-17 09:47:00,43.2,38.0,30.38,North,0,2.7,-999.0,82,-99.99,,,0.00,Acu-Link.com,2013-01-17 15:47:00,
2013-01-17 10:02:00,45.9,38.4,30.40,NNE,22,2.7,-999.0,75,-99.99,,,0.00,Acu-Link.com,2013-01-17 16:02:00,
2013-01-17 10:17:00,47.7,39.1,30.40,NNE,22,2.2,-999.0,72,-99.99,,,0.00,Acu-Link.com,2013-01-17 16:17:00,
2013-01-17 10:33:00,50.5,39.6,30.40,NNE,22,3.8,-999.0,66,-99.99,,,0.00,Acu-Link.com,2013-01-17 16:33:00,
2013-01-17 10:48:00,52.3,38.9,30.40,WNW,292,1.6,-999.0,60,-99.99,,,0.00,Acu-Link.com,2013-01-17 16:48:00,
2013-01-17 11:03:00,52.9,38.9,30.40,NNE,22,4.3,-999.0,59,-99.99,,,0.00,Acu-Link.com,2013-01-17 17:03:00,
2013-01-17 11:18:00,54.7,39.8,30.41,ENE,67,3.8,-999.0,57,-99.99,,,0.00,Acu-Link.com,2013-01-17 17:18:00,
2013-01-17 11:33:00,55.8,40.3,30.40,NNW,337,5.8,-999.0,56,-99.99,,,0.00,Acu-Link.com,2013-01-17 17:33:00,
2013-01-17 11:49:00,57.0,40.5,30.40,NNW,337,4.3,-999.0,54,-99.99,,,0.00,Acu-Link.com,2013-01-17 17:49:00,
2013-01-17 12:04:00,57.7,40.7,30.39,ENE,67,2.2,-999.0,53,-99.99,,,0.00,Acu-Link.com,2013-01-17 18:04:00,
2013-01-17 12:19:00,58.1,39.6,30.39,NE,45,7.4,-999.0,50,-99.99,,,0.00,Acu-Link.com,2013-01-17 18:19:00,
2013-01-17 12:34:00,58.6,37.9,30.38,NNW,337,5.1,-999.0,46,-99.99,,,0.00,Acu-Link.com,2013-01-17 18:34:00,
2013-01-17 12:49:00,59.5,37.6,30.38,NNW,337,6.7,-999.0,44,-99.99,,,0.00,Acu-Link.com,2013-01-17 18:49:00,
2013-01-17 13:05:00,59.4,37.4,30.37,NW,315,4.3,-999.0,44,-99.99,,,0.00,Acu-Link.com,2013-01-17 19:05:00,
2013-01-17 13:20:00,59.7,37.2,30.37,NNW,337,5.8,-999.0,43,-99.99,,,0.00,Acu-Link.com,2013-01-17 19:20:00,
2013-01-17 13:35:00,60.1,37.5,30.36,North,0,4.7,-999.0,43,-99.99,,,0.00,Acu-Link.com,2013-01-17 19:35:00,
2013-01-17 13:50:00,60.3,37.7,30.35,NE,45,5.8,-999.0,43,-99.99,,,0.00,Acu-Link.com,2013-01-17 19:50:00,
2013-01-17 14:05:00,60.6,37.4,30.34,North,0,5.1,-999.0,42,-99.99,,,0.00,Acu-Link.com,2013-01-17 20:05:00,
2013-01-17 14:21:00,61.2,37.9,30.34,NNW,337,3.8,-999.0,42,-99.99,,,0.00,Acu-Link.com,2013-01-17 20:21:00,
2013-01-17 14:36:00,60.8,37.0,30.34,North,0,4.7,-999.0,41,-99.99,,,0.00,Acu-Link.com,2013-01-17 20:36:00,
2013-01-17 14:51:00,61.0,37.1,30.34,NE,45,5.1,-999.0,41,-99.99,,,0.00,Acu-Link.com,2013-01-17 20:51:00,
2013-01-17 15:06:00,61.0,36.5,30.34,NE,45,4.7,-999.0,40,-99.99,,,0.00,Acu-Link.com,2013-01-17 21:06:00,
2013-01-17 15:22:00,61.7,37.1,30.34,NNE,22,5.8,-999.0,40,-99.99,,,0.00,Acu-Link.com,2013-01-17 21:22:00,
2013-01-17 15:37:00,61.3,36.8,30.33,NE,45,3.8,-999.0,40,-99.99,,,0.00,Acu-Link.com,2013-01-17 21:37:00,
2013-01-17 15:52:00,60.8,36.3,30.33,NNE,22,4.7,-999.0,40,-99.99,,,0.00,Acu-Link.com,2013-01-17 21:52:00,
2013-01-17 16:07:00,60.6,35.5,30.33,NNE,22,5.1,-999.0,39,-99.99,,,0.00,Acu-Link.com,2013-01-17 22:07:00,
2013-01-17 16:22:00,61.2,35.4,30.34,ENE,67,5.8,-999.0,38,-99.99,,,0.00,Acu-Link.com,2013-01-17 22:22:00,
2013-01-17 16:38:00,60.6,36.8,30.34,NNE,22,4.7,-999.0,41,-99.99,,,0.00,Acu-Link.com,2013-01-17 22:38:00,
2013-01-17 16:53:00,59.9,34.9,30.34,NNE,22,3.1,-999.0,39,-99.99,,,0.00,Acu-Link.com,2013-01-17 22:53:00,
2013-01-17 17:08:00,59.7,35.4,30.34,NE,45,6.7,-999.0,40,-99.99,,,0.00,Acu-Link.com,2013-01-17 23:08:00,
2013-01-17 17:23:00,58.6,35.6,30.35,NNE,22,2.2,-999.0,42,-99.99,,,0.00,Acu-Link.com,2013-01-17 23:23:00,
2013-01-17 17:38:00,57.7,35.4,30.36,NNE,22,2.2,-999.0,43,-99.99,,,0.00,Acu-Link.com,2013-01-17 23:38:00,
2013-01-17 17:54:00,55.9,34.3,30.36,NNE,22,0.0,-999.0,44,-99.99,,,0.00,Acu-Link.com,2013-01-17 23:54:00,
2013-01-17 18:09:00,53.1,34.4,30.36,NE,45,0.0,-999.0,49,-99.99,,,0.00,Acu-Link.com,2013-01-18 00:09:00,
2013-01-17 18:24:00,49.3,33.8,30.37,NE,45,0.0,-999.0,55,-99.99,,,0.00,Acu-Link.com,2013-01-18 00:24:00,
2013-01-17 18:39:00,46.8,31.9,30.37,NE,45,0.0,-999.0,56,-99.99,,,0.00,Acu-Link.com,2013-01-18 00:39:00,
2013-01-17 18:54:00,44.6,32.0,30.38,NE,45,0.0,-999.0,61,-99.99,,,0.00,Acu-Link.com,2013-01-18 00:54:00,
2013-01-17 19:10:00,42.6,31.3,30.38,NE,45,0.0,-999.0,64,-99.99,,,0.00,Acu-Link.com,2013-01-18 01:10:00,
2013-01-17 19:25:00,41.2,31.4,30.38,NE,45,0.0,-999.0,68,-99.99,,,0.00,Acu-Link.com,2013-01-18 01:25:00,
2013-01-17 19:40:00,39.9,31.6,30.39,NE,45,0.0,-999.0,72,-99.99,,,0.00,Acu-Link.com,2013-01-18 01:40:00,
2013-01-17 19:55:00,38.8,31.6,30.39,NW,315,0.0,-999.0,75,-99.99,,,0.00,Acu-Link.com,2013-01-18 01:55:00,
2013-01-17 20:10:00,37.4,30.5,30.40,NNE,22,0.0,-999.0,76,-99.99,,,0.00,Acu-Link.com,2013-01-18 02:10:00,
2013-01-17 20:26:00,36.5,30.9,30.41,NNE,22,0.0,-999.0,80,-99.99,,,0.00,Acu-Link.com,2013-01-18 02:26:00,
2013-01-17 20:41:00,35.8,31.1,30.41,NNE,22,0.0,-999.0,83,-99.99,,,0.00,Acu-Link.com,2013-01-18 02:41:00,
2013-01-17 20:56:00,35.1,30.7,30.41,NNE,22,0.0,-999.0,84,-99.99,,,0.00,Acu-Link.com,2013-01-18 02:56:00,
2013-01-17 21:11:00,34.5,31.3,30.42,NNE,22,0.0,-999.0,88,-99.99,,,0.00,Acu-Link.com,2013-01-18 03:11:00,
2013-01-17 21:27:00,34.7,33.2,30.42,North,0,0.0,-999.0,94,-99.99,,,0.00,Acu-Link.com,2013-01-18 03:27:00,
2013-01-17 21:42:00,34.0,32.2,30.42,NE,45,0.0,-999.0,93,-99.99,,,0.00,Acu-Link.com,2013-01-18 03:42:00,
2013-01-17 21:57:00,33.1,31.0,30.42,NE,45,0.0,-999.0,92,-99.99,,,0.00,Acu-Link.com,2013-01-18 03:57:00,
2013-01-17 22:12:00,34.2,32.6,30.42,North,0,0.0,-999.0,94,-99.99,,,0.00,Acu-Link.com,2013-01-18 04:12:00,
2013-01-17 22:27:00,35.2,32.9,30.42,NE,45,0.0,-999.0,91,-99.99,,,0.00,Acu-Link.com,2013-01-18 04:27:00,
2013-01-17 22:43:00,36.5,32.7,30.42,NNE,22,0.0,-999.0,86,-99.99,,,0.00,Acu-Link.com,2013-01-18 04:43:00,
2013-01-17 22:58:00,37.2,32.5,30.42,NNE,22,0.0,-999.0,83,-99.99,,,0.00,Acu-Link.com,2013-01-18 04:58:00,
2013-01-17 23:13:00,37.2,32.8,30.42,NE,45,0.0,-999.0,84,-99.99,,,0.00,Acu-Link.com,2013-01-18 05:13:00,
2013-01-17 23:28:00,37.9,32.6,30.42,NNW,337,0.0,-999.0,81,-99.99,,,0.00,Acu-Link.com,2013-01-18 05:28:00,
2013-01-17 23:43:00,38.1,32.8,30.42,North,0,0.0,-999.0,81,-99.99,,,0.00,Acu-Link.com,2013-01-18 05:43:00,
2013-01-17 23:59:00,38.1,32.5,30.42,North,0,0.0,-999.0,80,-99.99,,,0.00,Acu-Link.com,2013-01-18 05:59:00,